www.pogodaiklimat.ru

Погода и климат >> Архив погоды >> Нигер >> Agadez


ПОГОДА в Agadez

  • Прогноз погоды в Agadez
  • Монитор погоды в Agadez
  • Климат города

АРХИВ ПОГОДЫ в Agadez

Время (UTC), дата Ветер
(напр.,м/с)
 
Видим.   Явления Облачность Т
(С)
Тd
(С)
f
(%)
Тe
(С)
Тes
(С)
Комфортность P
(гПа)
Po
(гПа)
Тmin
(С)
Tmax
(С)
R
(мм)
R24
(мм)
S
(см)
06 8.08 ЮВ 2 10 км 6/1 600 м
[Sc Ci sp]
+25.0 +21.8 82 +32 +33 очень
душно
1011.5 955.9 +24.3 0.0
09 8.08 З 10 10 км 9/8 600 м
[Sc Ci sp]
+28.3 +22.9 73 +38 +38 очень
душно
1012.9 957.4
12 8.08 З 6 10 км 9/8 600 м
[Sc diur, vesp Ci sp]
+31.5 +21.1 54 +39 +41 очень
душно
1011.6 956.5
15 8.08 З 4 10 км 9/8 600 м
[Sc diur, vesp Ci sp]
+34.0 +21.1 47 +41 +43 опасность
перегрева
1009.3 954.5
18 8.08 З 6 10 км 9/5 600 м
[Cu med, cong Ci sp]
+32.8 +20.8 49 +40 +40 очень
душно
1008.5 953.4 +34.5
06 9.08 З 4 10 км 9/0
[Ac trans Ci sp]
+27.5 +21.6 70 +35 +36 очень
душно
1010.8 955.8 +26.7
09 9.08 СЗ 8 10 км 9/1 600 м
[Sc Ac trans Ci sp]
+31.3 +22.3 59 +40 +42 очень
душно
1011.5 956.7
12 9.08 З 6 10 км 9/9 900 м
[Cb cap Ci sp]
+36.0 +22.3 45 +45 +46 опасность
перегрева
1009.2 954.7
15 9.08 С 10 10 км в посл. час гроза {дождь} 9/4 900 м
[Cb cap Ci sp]
+31.5 +21.4 55 +39 +40 очень
душно
1008.3 953.3
18 9.08 С 10 10 км {гроза, дождь} 9/4 900 м
[Cb cap Ac cuf Ci sp]
+32.0 +22.8 58 +42 +42 опасность
перегрева
1007.8 952.9 +36.2 0.0
06 10.08 Ю 8 10 км 6/0
[Ac trans Ci sp]
+23.5 +22.7 95 +31 +31 очень
душно
1011.4 956.1 +22.0 15
09 10.08 В 4 10 км 8/0
[Ac trans Ci sp]
+26.5 +23.0 81 +35 +41 очень
душно
1013.6 957.5
12 10.08 В 10 10 км 9/3 1200 м
[Cu med, cong Ac trans]
+28.7 +22.7 70 +38 +38 очень
душно
1012.6 956.9
15 10.08 ЮВ 12 10 км 8/5 1200 м
[Cu med, cong Ac trans Ci sp]
+31.5 +20.6 52 +38 +38 очень
душно
1011.0 955.6
18 10.08 Ю 8 10 км 6/1 1200 м
[Cu med, cong Ac trans Ci sp]
+30.1 +20.8 58 +37 +37 очень
душно
1011.1 955.5 +36.4
06 11.08 штиль 0 10 км 8/0
[Ci sp]
+25.3 +22.7 86 +33 +34 очень
душно
1012.8 957.2 +21.5
09 11.08 З 6 10 км ясно +29.8 +23.0 67 +40 +46 очень
душно
1013.3 958.0
12 11.08 З 6 10 км 1/1 900 м
[Cu hum]
+33.0 +22.4 54 +42 +50 опасность
перегрева
1011.6 956.5
15 11.08 З 10 10 км 5/5 900 м
[Cb cap]
+35.5 +20.3 41 +42 +42 опасность
перегрева
1009.1 954.3
18 11.08 З 10 10 км в посл. час гроза 9/1 900 м
[Cb cap Ac cuf Ci sp]
+32.5 +22.3 55 +42 +42 опасность
перегрева
1008.7 953.6 +36.5
06 12.08 Ю 10 10 км гроза, ливневой дождь 10/3 1200 м
[Cb cap Ac As Ci sp]
+24.0 +20.8 82 +30 +30 очень
душно
1010.5 955.2 +23.5 3
09 12.08 З 10 10 км 9/0
[Ac As Ci sp]
+27.5 +22.5 74 +36 +36 очень
душно
1011.5 956.3
12 12.08 СЗ 14 10 км 9/0
[Ac As Ci sp]
+31.2 +24.0 66 +43 +43 опасность
перегрева
1010.5 955.5 0.0
15 12.08 С 14 10 км 9/3 900 м
[Cu med, cong Ac As Ci sp]
+34.3 +23.7 54 +45 +45 опасность
перегрева
1007.6 953.0
18 12.08 С 14 10 км 9/1 1200 м
[Cb cap Ac cuf Ci sp]
+34.5 +19.9 42 +40 +40 очень
душно
1006.3 951.4 +36.6 0.0
06 13.08 СЗ 10 10 км 6/0
[Ac trans Ci sp]
+25.5 +21.9 81 +33 +33 очень
душно
1008.1 953.2 +23.1
09 13.08 С 8 5000 м пыль 6/0
[Ci sp]
+30.4 +22.8 64 +40 +42 очень
душно
1008.5 953.9
12 13.08 З 6 6000 м пыль 6/0
[Ci sp]
+37.7 +19.1 34 +42 +50 опасность
перегрева
1006.9 952.6
15 13.08 Ю 10 6000 м пыль 6/1 1200 м
[Cu med, cong Ac trans Ci sp]
+38.4 +17.2 29 +41 +41 опасность
перегрева
1005.1 950.9
18 13.08 Ю 14 10 км 6/0
[Ac trans Ci sp]
+35.4 +20.4 42 +42 +42 опасность
перегрева
1005.6 950.9 +40.4
06 14.08 З 6 10 км 9/0
[Ac trans Ci sp]
+24.3 +21.9 86 +31 +31 очень
душно
1010.7 955.7 +20.4 24
09 14.08 З 6 10 км 6/1 1200 м
[Cu hum Ci sp]
+37.5 +22.5 42 +46 +51 опасность
перегрева
1012.2 957.1
12 14.08 З 6 10 км 6/1 1200 м
[Cb cap Ci sp]
+30.5 +21.9 60 +39 +46 очень
душно
1011.3 956.3
15 14.08 З 10 10 км 8/5 1200 м
[Cb cap Ci sp]
+33.7 +22.0 50 +42 +42 опасность
перегрева
1009.8 954.5
18 14.08 штиль 0 10 км в посл. час гроза {дождь} 9/1 1200 м
[Cu med, cong Ac cast Ci sp]
+30.0 +23.7 69 +41 +41 опасность
перегрева
1010.4 954.9 +34.4 1

 

Местоположение метеостанции Agadez (Нигер): широта 16.97 долгота 7.97 высота над уровнем моря 502 м.

В архиве по умолчанию представлена погода в Agadez за последнюю неделю. Архивные данные за месяц целиком и за предыдущие месяцы, начиная с января 2011 года, Вы можете получить, выбрав интересующий диапазон дат из раскрывающегося списка и нажав кнопку "Ввод!".


*Определитесь, кто Вы:
робот инопланетянин человек

Внимание! Время в таблицах - всемирное. Для получения местного времени необходимо прибавить поправку, которая в Agadez равна 1 ч.

Смотрите также архив погоды в соседних городах и на ближайших метеорологических станциях:

Погода в Zinder (Нигер) (371 км)
Погода в Tahoua (Нигер) (371 км)
Погода в In Guezzam (Алжир) (372 км)
Погода в In Guezzam (Алжир) (372 км)
Погода в Maradi (Нигер) (401 км)
Погода в Goure (Нигер) (416 км)
Погода в Anesbaraka (Алжир) (445 км)
Погода в Magaria (Нигер) (456 км)
Погода в Birni-Nkonni (Нигер) (458 км)
Погода в Cano (Нигерия) (551 км)

Пояснения к столбцам:

Ветер - указаны скорость ветра в м/с - средняя за 10 мин, порывы в срок и между сроками (в фигурных скобках) и направление, откуда дует ветер: С - северный, СВ - северо-восточный, В - восточный, ЮВ - юго-восточный, Ю - южный, ЮЗ - юго-западный, З - западный, СЗ - северо-западный.
Видимость - горизонтальная дальность видимости в метрах или километрах. При видимости от 1 до 10 км при отсутствии осадков обычно наблюдается дымка, при ухудшении видимости до 1 км и менее - туман. В сухую погоду видимость может ухудшаться дымом, пылью или мглою.
Явления - указаны атмосферные явления, наблюдавшиеся в срок или в последний час перед сроком; фигурными скобками обозначены явления, наблюдавшиеся между сроками (за 1-3 часа до срока); квадратными скобками обозначены град или гололедные отложения с указанием их диаметра в мм.
Облачность - указаны через наклонную черту общая и нижняя облачность в баллах и высота нижней границы облаков в метрах; квадратными скобками обозначены формы облаков: Ci - перистые, Cs - перисто-слоистые, Cc - перисто-кучевые, Ac - высококучевые, As - высокослоистые, Sc - слоисто-кучевые, Ns - слоисто-дождевые, Cu - кучевые, Cb - кучево-дождевые. Подробнее классификацию облаков см. в Атласе облаков (PDF).
T - Температура воздуха - температура, измеренная на высоте 2 м над землей.
Td - Температура точки росы - температура, при понижении до которой содержащийся в воздухе водяной пар достигнет насыщения.
f - Относительная влажность воздуха - влажноcть воздуха, измеренная на высоте 2 м над землей.
Te - Эффективная температура - температура, которую ощущает одетый по сезону человек в тени. Характеристика душности погоды. При расчете учитывается влияние влажности воздуха и скорости ветра на теплоощущения человека.
Tes - Эффективная температура на солнце - температура, которую ощущает человек, с поправкой на солнечный нагрев. Характеристика знойности погоды. Зависит от высоты солнца над горизонтом, облачности и скорости ветра. Ночью, в пасмурную погоду, а также при ветре 12 м/с и более поправка равна нулю.
P - Атмосферное давление - приведенное к уровню моря атмосферное давление.
Po - Атмосферное давление - измеренное на уровне метеостанции атмосферное давление.
Tmin - Минимальная температура - минимум температуры воздуха на высоте 2 м над землей.
Tmax - Максимальная температура - максимум температуры воздуха на высоте 2 м над землей.
R - Количество осадков - Количество выпавших осадков за период времени, мм. При наведении курсора мыши на число - период времени, за который выпало указанное количество осадков.
R24 - Количество осадков - Количество выпавших осадков за 24 часа, мм.
S - Снежный покров - Высота снежного покрова, см. При наведении курсора мыши на число - состояние снежного покрова и степень покрытия местности в баллах.